Location: *
(51.2167°N, 10.0667°E)
Time: 05:03:21
(UTC+00:00)

Cosmos 2219 Rocket - Pass Details

Date: 12 December 2019
Orbit: 826 x 848 km, 71.0° (Epoch: 18 January)

Event Time Altitude Azimuth Distance (km) Brightness Sun altitude
Rises 17:13:03 0° 242° (WSW) 3,374 6.9 -17.7°
Reaches altitude 10° 17:15:44 10° 252° (WSW) 2,447 5.9 -18.2°
Maximum altitude 17:20:45 32° 315° (NW) 1,402 3.6 -18.9°
Enters shadow 17:25:28 12° 17° (NNE) 2,361 4.2 -19.6°
